Location: Bruderhein
(53.8035°N, 112.9265°W)
Time: 04:02:06
(UTC+00:00)

XW-2A - Visible Passes

Search period start: 23 March 2023 00:00
Search period end: 02 April 2023 00:00
Orbit: 306 x 314 km, 97.1° (Epoch: 22 March)

Date Brightness Start Highest point End Pass type
(mag) Time Alt. Az. Time Alt. Az. Time Alt. Az.
23 Mar ? 04:34:14 12° N 04:34:14 12° N 04:34:32 10° N visible
24 Mar ? 04:46:17 13° N 04:46:17 13° N 04:46:36 10° N visible
25 Mar ? 04:57:52 12° NNW 04:57:52 12° NNW 04:58:09 10° NNW visible
26 Mar ? 05:09:00 12° NNW 05:09:00 12° NNW 05:09:13 10° NNW visible
27 Mar ? 03:49:01 10° NNE 03:49:01 10° NNE 03:49:08 10° NNE visible
27 Mar ? 05:19:40 11° NNW 05:19:40 11° NNW 05:19:46 10° NNW visible
28 Mar ? 03:59:16 12° NNE 03:59:16 12° NNE 03:59:43 10° NNE visible
29 Mar ? 04:09:04 15° NNE 04:09:04 15° NNE 04:09:44 10° NNE visible
30 Mar ? 04:18:24 17° NNE 04:18:24 17° NNE 04:19:14 10° N visible
31 Mar ? 04:27:17 19° NNE 04:27:17 19° NNE 04:28:13 10° N visible
01 Apr ? 04:35:43 20° N 04:35:43 20° N 04:36:43 10° N visible
